When you browse on this site, cookies collect data to enhance your experience and personalize the content and advertising you see.
Visit our Privacy Policy to learn more. By continuing to use the site, you agree to this use of cookies and data.
  • In Portugal
  • List of Countries
  • For 7 days
  • Water Temperature
  • Weather Map
  • Weather Widgets
  • user-avatar
    Login

    Hourly Weather Sapkovo

    Today, 6 June, Saturday

    Time Temperature Precipitation Wind Pressure Humidity
    00:00 +9°C° 0 mm 2 mps 745 mmHg 97%
    01:00 +10°C° 0 mm 1 mps 745 mmHg 97%
    02:00 +10°C° 0 mm 1 mps 745 mmHg 98%
    03:00 +10°C° 0 mm 1 mps 745 mmHg 97%
    04:00 +11°C° 0 mm 1 mps 745 mmHg 97%
    05:00 +11°C° 0 mm 1 mps 745 mmHg 97%
    06:00 +13°C° 0 mm 2 mps 745 mmHg 92%
    07:00 +15°C° 0 mm 2 mps 745 mmHg 86%
    08:00 +16°C° 0 mm 3 mps 746 mmHg 80%
    09:00 +18°C° 0 mm 3 mps 746 mmHg 72%
    10:00 +19°C° 0 mm 3 mps 746 mmHg 65%
    11:00 +21°C° 0 mm 4 mps 746 mmHg 58%
    12:00 +21°C° 0 mm 4 mps 746 mmHg 59%
    13:00 +22°C° 0 mm 4 mps 746 mmHg 61%
    14:00 +23°C° 0 mm 4 mps 746 mmHg 62%
    15:00 +22°C° 0.5 mm 4 mps 745 mmHg 71%
    16:00 +21°C° 0.5 mm 3 mps 745 mmHg 80%
    17:00 +20°C° 0.5 mm 3 mps 745 mmHg 89%
    18:00 +19°C° 0.1 mm 3 mps 745 mmHg 91%
    19:00 +18°C° 0.1 mm 2 mps 745 mmHg 94%
    20:00 +17°C° 0.1 mm 2 mps 746 mmHg 96%
    21:00 +17°C° 0.1 mm 2 mps 746 mmHg 96%
    22:00 +16°C° 0.1 mm 2 mps 746 mmHg 97%
    23:00 +16°C° 0.1 mm 2 mps 746 mmHg 97%

    Tomorrow, 7 June, Sunday

    Time Temperature Precipitation Wind Pressure Humidity
    00:00 +15°C° 0.2 mm 1 mps 746 mmHg 97%
    01:00 +15°C° 0.2 mm 1 mps 747 mmHg 98%
    02:00 +15°C° 0.2 mm 1 mps 747 mmHg 98%
    03:00 +15°C° 0 mm 1 mps 748 mmHg 98%
    04:00 +16°C° 0 mm 1 mps 748 mmHg 97%
    05:00 +16°C° 0 mm 1 mps 748 mmHg 97%
    06:00 +18°C° 0 mm 1 mps 749 mmHg 93%
    07:00 +20°C° 0 mm 1 mps 749 mmHg 90%
    08:00 +21°C° 0 mm 1 mps 749 mmHg 87%
    09:00 +22°C° 0 mm 1 mps 750 mmHg 79%
    10:00 +23°C° 0 mm 1 mps 750 mmHg 72%
    11:00 +25°C° 0 mm 1 mps 750 mmHg 64%
    12:00 +26°C° 0 mm 1 mps 750 mmHg 59%
    13:00 +27°C° 0 mm 1 mps 750 mmHg 54%
    14:00 +27°C° 0 mm 1 mps 750 mmHg 49%
    15:00 +27°C° 0 mm 1 mps 750 mmHg 53%
    16:00 +27°C° 0 mm 1 mps 750 mmHg 57%
    17:00 +27°C° 0 mm 1 mps 750 mmHg 60%
    18:00 +25°C° 0 mm 1 mps 751 mmHg 69%
    19:00 +23°C° 0 mm 1 mps 751 mmHg 77%
    20:00 +21°C° 0 mm 1 mps 751 mmHg 85%
    21:00 +20°C° 0 mm 1 mps 751 mmHg 88%
    22:00 +19°C° 0 mm 1 mps 751 mmHg 90%
    23:00 +18°C° 0 mm 1 mps 751 mmHg 93%

    Day after tomorrow, 8 June, Monday

    Time Temperature Precipitation Wind Pressure Humidity
    00:00 +18°C° 0 mm 1 mps 751 mmHg 93%
    01:00 +18°C° 0 mm 1 mps 751 mmHg 94%
    02:00 +16°C° 0 mm 1 mps 751 mmHg 94%
    03:00 +18°C° 0 mm 1 mps 751 mmHg 93%
    04:00 +19°C° 0 mm 1 mps 751 mmHg 93%
    05:00 +19°C° 0 mm 1 mps 751 mmHg 92%
    06:00 +21°C° 0 mm 1 mps 752 mmHg 86%
    07:00 +23°C° 0 mm 1 mps 752 mmHg 80%
    08:00 +24°C° 0 mm 1 mps 752 mmHg 74%
    09:00 +26°C° 0 mm 1 mps 752 mmHg 66%
    10:00 +27°C° 0 mm 1 mps 752 mmHg 59%
    11:00 +28°C° 0 mm 1 mps 752 mmHg 52%
    12:00 +29°C° 0 mm 1 mps 752 mmHg 51%
    13:00 +29°C° 0 mm 1 mps 751 mmHg 49%
    14:00 +29°C° 0 mm 1 mps 751 mmHg 47%
    15:00 +29°C° 0 mm 2 mps 751 mmHg 52%
    16:00 +28°C° 0 mm 2 mps 751 mmHg 57%
    17:00 +28°C° 0 mm 2 mps 751 mmHg 62%
    18:00 +26°C° 0 mm 2 mps 751 mmHg 71%
    19:00 +24°C° 0 mm 2 mps 751 mmHg 79%
    20:00 +21°C° 0 mm 2 mps 751 mmHg 88%
    21:00 +20°C° 0 mm 2 mps 751 mmHg 90%
    22:00 +20°C° 0 mm 2 mps 751 mmHg 93%
    23:00 +19°C° 0 mm 2 mps 751 mmHg 95%

    9 June, Tuesday

    Time Temperature Precipitation Wind Pressure Humidity
    00:00 +18°C° 0 mm 2 mps 752 mmHg 95%
    01:00 +18°C° 0 mm 2 mps 752 mmHg 95%
    02:00 +18°C° 0 mm 2 mps 752 mmHg 96%
    03:00 +18°C° 0 mm 2 mps 752 mmHg 93%
    04:00 +19°C° 0 mm 2 mps 752 mmHg 91%
    05:00 +19°C° 0 mm 2 mps 752 mmHg 89%
    06:00 +21°C° 0 mm 2 mps 752 mmHg 83%
    07:00 +22°C° 0 mm 3 mps 752 mmHg 77%
    08:00 +25°C° 0 mm 3 mps 752 mmHg 71%
    09:00 +26°C° 0 mm 3 mps 752 mmHg 66%
    10:00 +27°C° 0 mm 3 mps 752 mmHg 61%
    11:00 +28°C° 0 mm 4 mps 752 mmHg 56%
    12:00 +28°C° 0 mm 4 mps 752 mmHg 54%
    13:00 +29°C° 0 mm 3 mps 752 mmHg 53%
    14:00 +29°C° 0 mm 3 mps 752 mmHg 51%
    15:00 +29°C° 0 mm 3 mps 752 mmHg 54%
    16:00 +28°C° 0 mm 3 mps 752 mmHg 57%
    17:00 +28°C° 0 mm 2 mps 752 mmHg 60%
    18:00 +26°C° 0 mm 2 mps 752 mmHg 68%
    19:00 +24°C° 0 mm 2 mps 752 mmHg 75%
    20:00 +21°C° 0 mm 2 mps 752 mmHg 82%
    21:00 +20°C° 0 mm 2 mps 752 mmHg 85%
    22:00 +19°C° 0 mm 2 mps 752 mmHg 89%
    23:00 +19°C° 0 mm 2 mps 752 mmHg 92%

    10 June, Wednesday

    Time Temperature Precipitation Wind Pressure Humidity
    00:00 +18°C° 0 mm 2 mps 752 mmHg 93%
    01:00 +19°C° 0 mm 1 mps 752 mmHg 94%
    02:00 +18°C° 0 mm 1 mps 752 mmHg 95%
    03:00 +19°C° 0 mm 1 mps 752 mmHg 93%
    04:00 +19°C° 0 mm 1 mps 752 mmHg 91%
    05:00 +19°C° 0 mm 2 mps 752 mmHg 89%
    06:00 +21°C° 0 mm 2 mps 752 mmHg 82%
    07:00 +23°C° 0 mm 2 mps 752 mmHg 76%
    08:00 +25°C° 0 mm 2 mps 752 mmHg 70%
    09:00 +26°C° 0 mm 2 mps 752 mmHg 65%
    10:00 +27°C° 0 mm 3 mps 752 mmHg 61%
    11:00 +28°C° 0 mm 3 mps 752 mmHg 57%
    12:00 +28°C° 0.1 mm 3 mps 752 mmHg 56%
    13:00 +28°C° 0.1 mm 3 mps 751 mmHg 56%
    14:00 +28°C° 0.1 mm 3 mps 751 mmHg 55%
    15:00 +28°C° 0.3 mm 3 mps 751 mmHg 59%
    16:00 +27°C° 0.3 mm 2 mps 751 mmHg 63%
    17:00 +27°C° 0.3 mm 2 mps 751 mmHg 67%
    18:00 +25°C° 0 mm 2 mps 751 mmHg 74%
    19:00 +23°C° 0 mm 2 mps 751 mmHg 80%
    20:00 +21°C° 0 mm 2 mps 751 mmHg 87%
    21:00 +20°C° 0 mm 2 mps 751 mmHg 89%
    22:00 +20°C° 0 mm 1 mps 751 mmHg 92%
    23:00 +19°C° 0 mm 1 mps 750 mmHg 94%

    11 June, Thursday

    Time Temperature Precipitation Wind Pressure Humidity
    00:00 +19°C° 0 mm 1 mps 750 mmHg 94%
    01:00 +19°C° 0 mm 1 mps 750 mmHg 95%
    02:00 +18°C° 0 mm 1 mps 750 mmHg 95%
    03:00 +19°C° 0 mm 1 mps 750 mmHg 94%
    04:00 +20°C° 0 mm 1 mps 750 mmHg 92%
    05:00 +20°C° 0 mm 1 mps 750 mmHg 91%
    06:00 +22°C° 0 mm 1 mps 750 mmHg 84%
    07:00 +24°C° 0 mm 1 mps 750 mmHg 77%
    08:00 +25°C° 0 mm 1 mps 750 mmHg 70%
    09:00 +26°C° 0 mm 1 mps 750 mmHg 64%
    10:00 +28°C° 0 mm 1 mps 750 mmHg 58%
    11:00 +29°C° 0 mm 2 mps 750 mmHg 52%
    12:00 +29°C° 0 mm 1 mps 750 mmHg 50%
    13:00 +30°C° 0 mm 1 mps 749 mmHg 47%
    14:00 +30°C° 0 mm 1 mps 749 mmHg 45%
    15:00 +30°C° 0 mm 1 mps 749 mmHg 49%
    16:00 +29°C° 0 mm 1 mps 749 mmHg 52%
    17:00 +29°C° 0 mm 1 mps 749 mmHg 56%
    18:00 +27°C° 0.1 mm 1 mps 749 mmHg 65%
    19:00 +25°C° 0.1 mm 1 mps 749 mmHg 74%
    20:00 +23°C° 0.1 mm 1 mps 749 mmHg 83%
    21:00 +22°C° 0.1 mm 1 mps 749 mmHg 86%
    22:00 +21°C° 0.1 mm 1 mps 749 mmHg 88%
    23:00 +20°C° 0.1 mm 1 mps 749 mmHg 91%
    Show more